Location: Unspecified
(0.0000°N, 0.0000°E)
Time: 04:56:54
(UTC+00:00)

OTV 5 (USA 277) - Pass Details

Date: 21 May 2019
Orbit: 310 x 325 km, 54.5° (Epoch: 08 May)

Event Time Altitude Azimuth Distance (km) Brightness Sun altitude
Rises 18:31:05 0° 339° (NNW) 2,009 ? -8.1°
Reaches altitude 10° 18:33:06 10° 348° (NNW) 1,187 ? -8.6°
Maximum altitude 18:35:33 36° 57° (ENE) 513 ? -9.1°
Enters shadow 18:37:28 14° 122° (ESE) 982 ? -9.6°
